King Salmon, AK

6:20 AM AKST on February 24, 2017 (GMT -0900)
King Salmon

Weather History for PAKN - June, 2013

Change the Weather History Date:

Saturday, June 1, 2013

  Actual Average Record
Temperature  
Mean Temperature 56 °F 48 °F  
Max Temperature 66 °F 58 °F 79 °F (1996)
Min Temperature 46 °F 38 °F 30 °F (1956)
Degree Days  
Heating Degree Days 9 17  
Month to date heating degree days 9 17  
Since 1 June heating degree days 9 17  
Since 1 July heating degree days 10994 10486  
Cooling Degree Days 0    
Month to date cooling degree days 0  
Year to date cooling degree days 0  
Since 1 June cooling degree days 0  
Growing Degree Days 7 (Base 50)    
Moisture  
Dew Point 43 °F    
Average Humidity 0    
Maximum Humidity 0    
Minimum Humidity 0    
Precipitation  
Precipitation 0.02 in 0.05 in 0.40 in (2011)
Month to date precipitation 0.02 0.05  
Year to date precipitation 6.38 4.75  
Snow  
Snow 0.00 in 0.00 in T in (1971)
Month to date snowfall 0.0 0.0  
Since 1 June snowfall 0.0 0.0  
Since 1 July snowfall 75.3 46.6  
Snow Depth 0.00 in    
Sea Level Pressure  
Sea Level Pressure 30.12 in    
Wind  
Wind Speed 7 mph (SSW)    
Max Wind Speed 17 mph    
Max Gust Speed 21 mph    
Visibility 10 miles    
Events Rain    
T = Trace of Precipitation, MM = Missing Value Source: NWS Daily Summary

Daily Weather History Graph

Daily Weather History Graph

Search for Another Location

Airport or City:

Trip Planner

Search our weather history database for the weather conditions in past years. The results will help you decide how hot, cold, wet, or windy it might be!

Date:

Astronomy

Jun. 01, 2013 Rise Set
Actual Time 5:27 AM AKDT 11:22 PM AKDT
Civil Twilight 4:15 AM AKDT 12:35 AM AKDT
Nautical Twilight 2:56 AM AKDT Sun does not rise
Astronomical Twilight Sun does not rise Sun does not rise
Moon 3:01 AM AKDT (6/1) 3:38 PM AKDT (6/1)
Length of Visible Light 20h 19m
Length of Day
17h 55m
Last Quarter, 39% of the Moon is Illuminated
Jun 1
Last Quarter
Jun 8
New
Jun 16
First Quarter
Jun 23
Full
Jun 29
Last Quarter

Hourly Weather History & Observations

Time (AKDT) Temp. Dew Point Humidity Pressure Visibility Wind Dir Wind Speed Gust Speed Precip Events Conditions
12:54 AM 51.1 °F 44.1 °F 77% 30.14 in 10.0 mi SSW 5.8 mph - N/A   Overcast
1:54 AM 51.1 °F 44.1 °F 77% 30.14 in 10.0 mi WSW 4.6 mph - N/A   Overcast
2:54 AM 50.0 °F 43.0 °F 77% 30.14 in 10.0 mi SW 4.6 mph - N/A   Overcast
3:54 AM 50.0 °F 44.1 °F 80% 30.13 in 10.0 mi SSW 5.8 mph - N/A   Overcast
4:54 AM 50.0 °F 44.1 °F 80% 30.14 in 10.0 mi South 6.9 mph - N/A   Overcast
5:54 AM 48.9 °F 43.0 °F 80% 30.14 in 10.0 mi SW 5.8 mph - N/A   Overcast
6:54 AM 48.9 °F 44.1 °F 83% 30.14 in 10.0 mi SW 4.6 mph - N/A   Overcast
7:54 AM 48.9 °F 44.1 °F 83% 30.13 in 10.0 mi SSW 5.8 mph - N/A   Scattered Clouds
8:54 AM 51.1 °F 44.1 °F 77% 30.14 in 10.0 mi SW 8.1 mph - N/A   Overcast
9:54 AM 52.0 °F 43.0 °F 71% 30.14 in 10.0 mi SW 6.9 mph - N/A   Mostly Cloudy
10:54 AM 55.0 °F 43.0 °F 64% 30.15 in 10.0 mi South 8.1 mph - N/A   Mostly Cloudy
11:54 AM 55.9 °F 43.0 °F 62% 30.14 in 10.0 mi SSE 4.6 mph - N/A   Mostly Cloudy
12:54 PM 59.0 °F 43.0 °F 55% 30.13 in 10.0 mi South 5.8 mph - N/A   Mostly Cloudy
1:54 PM 60.1 °F 44.1 °F 55% 30.12 in 10.0 mi South 8.1 mph - N/A   Mostly Cloudy
2:54 PM 63.0 °F 44.1 °F 50% 30.11 in 10.0 mi South 5.8 mph - N/A   Mostly Cloudy
3:54 PM 63.0 °F 45.0 °F 52% 30.10 in 10.0 mi Variable 6.9 mph - N/A   Mostly Cloudy
4:54 PM 62.1 °F 44.1 °F 52% 30.10 in 10.0 mi SSW 9.2 mph - N/A   Mostly Cloudy
5:54 PM 57.9 °F 44.1 °F 60% 30.10 in 10.0 mi WNW 8.1 mph - N/A   Mostly Cloudy
6:54 PM 57.0 °F 44.1 °F 62% 30.09 in 10.0 mi NNW 5.8 mph - N/A   Mostly Cloudy
7:54 PM 57.0 °F 44.1 °F 62% 30.10 in 10.0 mi Calm Calm - N/A   Mostly Cloudy
8:54 PM 54.0 °F 42.1 °F 64% 30.10 in 10.0 mi SSW 10.4 mph - N/A   Mostly Cloudy
9:54 PM 50.0 °F 41.0 °F 71% 30.11 in 10.0 mi SSW 11.5 mph 18.4 mph N/A   Mostly Cloudy
10:54 PM 48.9 °F 41.0 °F 74% 30.12 in 10.0 mi SSW 12.7 mph - N/A   Mostly Cloudy
11:37 PM 48.2 °F 39.2 °F 71% 30.12 in 10.0 mi South 12.7 mph - N/A   Mostly Cloudy
11:54 PM 48.0 °F 41.0 °F 77% 30.12 in 10.0 mi South 12.7 mph 18.4 mph 0.00 in Rain Light Rain